Location: �chenoz-la-M�line
(47.6009°N, 6.1354°E)
Time: 14:09:03
(UTC+00:00)

Cosmos 1980 - Pass Details

Date: 10 December 2021
Orbit: 838 x 848 km, 71.0° (Epoch: 17 January)

Event Time Altitude Azimuth Distance (km) Brightness Sun altitude
Rises 17:24:11 0° 338° (NNW) 3,416 6.9 -16.1°
Reaches altitude 10° 17:28:26 10° 8° (N) 2,480 5.9 -16.7°
Enters shadow 17:29:56 12° 23° (NNE) 2,344 5.6 -17.0°
